Starlink 30975

operational
NORAD ID: 58446 Int'l Des: 2023-183 Owner: SPXS Country: US Constellation: starlink
LEOCIRCULAR

Über Starlink 30975

Beschreibung wird geladen...

Live-Position

3D-Globus wird geladen...

Nächste Überflüge

Höhenverlauf

Altitude vs Time

uPlot chart will show altitude changes over time

Zweizeiliger Elementsatz

1 58446U 23183K 25350.74385025 .00000625 00000-0 61346-4 0 9990
2 58446 43.0025 134.3035 0001191 268.1447 91.9259 15.02538888114252
Epoch: 16. Dez. 2025 • Age: 16 hours

Aktueller Status

Höhe 560.3 km
Geschwindigkeit 7.58 km/s
Subsatellitenpunkt -9.10°S, 111.63°W
Startdatum 28. Nov. 2023
Alter 2 years
Typ internet

Technische Details

Klassifizierung Payload
Masse 730.00 kg
Trockenmasse 700.00 kg
Gesamtmasse 730.00 kg
Länge 0.30 m
Durchmesser 4.10 m
Spannweite 29.00 m
Form Box + pan
Hersteller SPXS
Bus-Typ Starlink V2M
Phasenstatus In Orbit
Besitzer/Staat SPXS/US

Große Konstellationen

Loading constellations...